sat.trackr.live / text

‹ back to catalog

STARLINK-32803

NORAD 63024 · 2025-032V

PAYLOAD ACTIVE UNKNOWN

§ Identity

Operator
Country
US
Launch date
2025-02-15
Launch site
AFETR
Launch vehicle
Mass (kg)
RCS (m²)

Purposes: comms

External: N2YO · Heavens-Above · Gunter

§ Orbital elements

Epoch: 2026-09-21T11:08:20.333472Z

Period
94.27 min
Inclination
43.0019°
Eccentricity
0.0001629
Mean motion
15.27589819 rev/d
Perigee alt
481.9 km
Apogee alt
484.1 km
Semi-major
6,861.2 km
B*
2.9455e-4
RAAN
310.2028°
Arg perigee
282.2431°
Mean anomaly
77.8239°
Rev number
9,040

§ Raw data

STARLINK-328031 63024U 25032V   26264.46412423  .00007854  00000+0  29455-3 0  99942 63024  43.0019 310.2028 0001629 282.2431  77.8239 15.27589819 90404

JSON: /api/v1/satellites/63024 · /tle

For live sub-satellite position, see the globe view (requires WebGL).

§ Visibility from observer

Set your observer location to see the next 7 days of passes ≥ 10°. The values pass through the URL so the page stays shareable.

No JS? Fill the form by hand. The geolocation button needs JavaScript.